TimeCDT,TemperatureF,Dew PointF,Humidity,Sea Level PressureIn,VisibilityMPH,Wind Direction,Wind SpeedMPH,Gust SpeedMPH,PrecipitationIn,Events,Conditions,WindDirDegrees,DateUTC
12:53 AM,57.2,35.6,44,29.92,10.0,South,10.4,-,N/A,,Clear,180,2013-03-21 05:53:00
1:53 AM,55.9,37.9,51,29.82,10.0,South,9.2,-,N/A,,Clear,190,2013-03-21 06:53:00
2:53 AM,55.9,43.0,62,29.77,10.0,South,11.5,-,N/A,,Clear,190,2013-03-21 07:53:00
3:53 AM,57.0,46.9,69,29.74,10.0,South,15.0,-,N/A,,Clear,190,2013-03-21 08:53:00
4:53 AM,55.9,48.0,75,29.70,10.0,South,12.7,-,N/A,,Clear,190,2013-03-21 09:53:00
5:53 AM,55.9,48.9,77,29.66,10.0,South,20.7,-,N/A,,Clear,190,2013-03-21 10:53:00
6:53 AM,55.0,48.9,80,29.66,10.0,South,15.0,-,N/A,,Clear,190,2013-03-21 11:53:00
7:53 AM,54.0,48.0,80,29.66,10.0,SSW,11.5,-,N/A,,Clear,200,2013-03-21 12:53:00
8:53 AM,55.9,48.0,75,29.65,10.0,SSW,11.5,-,N/A,,Clear,200,2013-03-21 13:53:00
9:53 AM,60.1,48.9,67,29.65,10.0,SSW,16.1,-,N/A,,Clear,200,2013-03-21 14:53:00
10:53 AM,66.0,46.9,50,29.63,10.0,SSW,18.4,-,N/A,,Clear,200,2013-03-21 15:53:00
11:53 AM,72.0,43.0,35,29.63,10.0,SW,16.1,-,N/A,,Clear,220,2013-03-21 16:53:00
12:53 PM,77.0,39.0,25,29.59,10.0,WSW,18.4,24.2,N/A,,Clear,240,2013-03-21 17:53:00
1:53 PM,80.1,34.0,19,29.55,10.0,West,21.9,27.6,N/A,,Clear,260,2013-03-21 18:53:00
2:53 PM,82.0,33.1,17,29.52,10.0,WSW,16.1,21.9,N/A,,Clear,240,2013-03-21 19:53:00
3:53 PM,86.0,23.0,10,29.45,10.0,West,16.1,25.3,N/A,,Clear,270,2013-03-21 20:53:00
4:53 PM,88.0,12.9,6,29.43,7.0,West,26.5,35.7,N/A,,Widespread Dust,270,2013-03-21 21:53:00
5:53 PM,86.0,17.1,8,29.43,7.0,West,31.1,39.1,N/A,,Widespread Dust,270,2013-03-21 22:53:00
6:53 PM,84.9,19.0,9,29.44,10.0,West,24.2,34.5,N/A,,Clear,270,2013-03-21 23:53:00
7:53 PM,80.1,19.0,10,29.47,10.0,West,15.0,-,N/A,,Clear,270,2013-03-22 00:53:00
8:53 PM,68.0,19.0,15,29.51,10.0,West,8.1,-,N/A,,Clear,270,2013-03-22 01:53:00
9:53 PM,66.9,19.0,16,29.52,10.0,West,9.2,-,N/A,,Clear,270,2013-03-22 02:53:00
10:53 PM,64.9,19.0,17,29.53,10.0,West,10.4,-,N/A,,Clear,260,2013-03-22 03:53:00
11:53 PM,68.0,19.9,16,29.53,10.0,West,13.8,-,N/A,,Clear,280,2013-03-22 04:53:00